Location: Lincoln
(40.8000°N, 96.6670°W)
Time: 05:42:45
(UTC-06:00)

Hubble Space Telescope - Visible Passes

Search period start: 29 January 2023 00:00
Search period end: 08 February 2023 00:00
Orbit: 529 x 532 km, 28.5° (Epoch: 28 January)

Date Brightness Start Highest point End Pass type
(mag) Time Alt. Az. Time Alt. Az. Time Alt. Az.
29 Jan 3.2 06:15:34 10° SW 06:17:26 13° S 06:19:16 10° SSE visible
30 Jan 3.1 06:03:03 11° SSW 06:04:13 12° S 06:05:45 10° SSE visible
31 Jan 3.2 05:50:42 11° SSW 05:51:00 11° SSW 05:51:59 10° S visible
